SCP
0 0 0 0 0 0 0 0 0 0 0 0 0 0 0 0 0 0 0 0 0 0
0 0 0 0 0 0 0 0 0 0 0 0 0 0 0 0 0 0 0 0 0 0
0 0 0 0 0 0 0 0 0 0 0 0 0 0 0 0 0 0 0 0 0 0
0 0 0 0 0 0 0 0 0 0 0 0 0 0 0 0 0 0 0 0 0 0
0 0 0 0 0 0 0 0 0 0 0 0 0 0 0 0 0 0 0 0 0 0
0 0 0 0 0 0 0 0 0 0 0 0 0 0 0 0 0 0 0 0 0 0
0 0 0 0 0 0 0 0 0 0 0 0 0 0 0 0 0 0 0 0 0 0
0 0 0 0 0 0 0 0 0 0 0 0 0 0 0 0 0 0 0 0 0 0
0 0 0 0 0 0 0 0 0 0 0 0 0 0 0 0 0 0 0 0 0 0
0 0 0 0 0 0 0 0 0 0 0 0 0 0 0 0 0 0 0 0 0 0
0 0 0 0 0 0 0 0 0 0 0 0 0 0 0 0 0 0 0 0 0 0
0 0 0 0 0 0 0 0 0 0 0 0 0 0 0 0 0 0 0 0 0 0
0 0 0 0 0 0 0 0 0 0 0 0 0 0 0 0 0 0 0 0 0 0
0 0 0 0 0 0 0 0 0 0 0 0 0 0 0 0 0 0 0 0 0 0
Wind_Speed_500mb
31 34 36 36 35 39 39 39 41 41 40 38 36 36 33 34 36 37 36 37 36 37
43 64 58 52 33 33 34 35 35 32 33 29 28 30 31 32 34 35 31 31 28 23
20 24 27 32 30 25 24 27 31 30 32 30 28 31 31 30 29 28 26 22 19 16
19 24 23 24 27 26 25 24 24 22 24 22 21 24 23 21 19 16 12 11 10 11
19 23 22 25 28 23 22 21 17 15 14 18 17 19 14 11 10 7 8 7 5 3
16 14 14 13 11 10 14 16 18 17 16 13 11 12 11 11 11 9 7 5 4 4
9 7 8 9 10 9 10 11 14 14 15 13 16 14 15 14 11 8 7 8 7 7
8 8 9 8 6 8 12 14 16 16 17 18 17 17 15 14 14 12 11 9 7 5
13 14 14 9 10 10 11 12 12 11 13 15 16 18 16 14 12 11 10 8 4 4
12 12 14 13 12 12 11 12 13 15 17 18 17 15 12 11 9 8 6 4 3 7
13 13 13 13 14 16 17 17 18 19 18 15 14 13 10 8 5 2 3 6 8 10
14 13 14 14 15 15 16 17 17 17 17 16 13 10 6 3 2 5 7 8 10 12
14 16 15 15 15 14 15 16 17 18 16 13 10 5 1 3 5 8 11 13 15 15
14 14 15 16 16 17 17 17 15 14 12 10 6 3 4 7 9 12 15 17 19 20
Wind_Direction_500mb
239 260 264 262 262 260 248 235 236 250 254 264 257 254 256 262 266 267 266 270 268 271
244 242 248 262 274 257 244 242 257 256 256 250 248 254 258 260 264 266 263 260 265 261
224 231 236 242 243 242 232 230 237 232 254 241 243 257 263 258 259 260 259 260 265 255
233 227 226 229 232 236 244 249 246 234 230 241 257 269 259 250 250 240 233 223 233 254
252 254 242 237 236 233 239 242 238 235 247 262 271 263 227 219 207 219 229 231 196 200
225 224 228 235 224 205 223 228 234 226 229 229 225 200 194 200 178 173 167 172 156 150
199 185 177 179 190 203 204 215 222 224 225 212 190 168 165 150 147 147 135 138 141 137
144 134 128 131 127 139 138 146 142 144 144 146 144 139 137 133 125 131 128 131 122 123
136 140 136 136 135 136 137 138 135 136 138 140 145 131 129 127 132 131 134 127 110 34
130 131 132 138 145 147 162 153 147 147 139 144 143 140 142 133 131 126 116 91 36 3
139 142 141 140 141 145 147 144 143 143 142 148 144 140 137 134 129 102 25 3 5 359
144 144 144 147 150 150 150 150 153 152 150 149 147 148 145 108 35 357 348 347 349 343
162 157 159 163 164 166 164 165 162 159 159 162 162 160 87 13 346 339 336 334 332 326
192 187 188 186 185 179 179 176 176 176 179 183 178 211 311 327 326 323 322 320 315 315
Wind_Speed_850mb
31 34 36 36 35 39 39 39 41 41 40 38 36 36 33 34 36 37 36 37 36 37
43 64 58 52 33 33 34 35 35 32 33 29 28 30 31 32 34 35 31 31 28 23
20 24 27 32 30 25 24 27 31 30 32 30 28 31 31 30 29 28 26 22 19 16
19 24 23 24 27 26 25 24 24 22 24 22 21 24 23 21 19 16 12 11 10 11
19 23 22 25 28 23 22 21 17 15 14 18 17 19 14 11 10 7 8 7 5 3
16 14 14 13 11 10 14 16 18 17 16 13 11 12 11 11 11 9 7 5 4 4
9 7 8 9 10 9 10 11 14 14 15 13 16 14 15 14 11 8 7 8 7 7
8 8 9 8 6 8 12 14 16 16 17 18 17 17 15 14 14 12 11 9 7 5
13 14 14 9 10 10 11 12 12 11 13 15 16 18 16 14 12 11 10 8 4 4
12 12 14 13 12 12 11 12 13 15 17 18 17 15 12 11 9 8 6 4 3 7
13 13 13 13 14 16 17 17 18 19 18 15 14 13 10 8 5 2 3 6 8 10
14 13 14 14 15 15 16 17 17 17 17 16 13 10 6 3 2 5 7 8 10 12
14 16 15 15 15 14 15 16 17 18 16 13 10 5 1 3 5 8 11 13 15 15
14 14 15 16 16 17 17 17 15 14 12 10 6 3 4 7 9 12 15 17 19 20
Wind_Direction_850mb
239 260 264 262 262 260 248 235 236 250 254 264 257 254 256 262 266 267 266 270 268 271
244 242 248 262 274 257 244 242 257 256 256 250 248 254 258 260 264 266 263 260 265 261
224 231 236 242 243 242 232 230 237 232 254 241 243 257 263 258 259 260 259 260 265 255
233 227 226 229 232 236 244 249 246 234 230 241 257 269 259 250 250 240 233 223 233 254
252 254 242 237 236 233 239 242 238 235 247 262 271 263 227 219 207 219 229 231 196 200
225 224 228 235 224 205 223 228 234 226 229 229 225 200 194 200 178 173 167 172 156 150
199 185 177 179 190 203 204 215 222 224 225 212 190 168 165 150 147 147 135 138 141 137
144 134 128 131 127 139 138 146 142 144 144 146 144 139 137 133 125 131 128 131 122 123
136 140 136 136 135 136 137 138 135 136 138 140 145 131 129 127 132 131 134 127 110 34
130 131 132 138 145 147 162 153 147 147 139 144 143 140 142 133 131 126 116 91 36 3
139 142 141 140 141 145 147 144 143 143 142 148 144 140 137 134 129 102 25 3 5 359
144 144 144 147 150 150 150 150 153 152 150 149 147 148 145 108 35 357 348 347 349 343
162 157 159 163 164 166 164 165 162 159 159 162 162 160 87 13 346 339 336 334 332 326
192 187 188 186 185 179 179 176 176 176 179 183 178 211 311 327 326 323 322 320 315 315